(512514) = 2016 RX26

Discovered at Haleakala on 2015-04-13 by Pan-STARRS 1.

Orbit

Orbit type: Main Belt

Note: WebGL enabled browser required.

epoch2024-03-31.0
epoch JD2460400.5
perihelion date2020-11-23.31582
perihelion JD2459176.81582
argument of perihelion (°)195.89179
ascending node (°)142.94958
inclination (°)15.26372
eccentricity0.2650320
perihelion distance (AU)1.9583500
Tisserand w.r.t. Jupiter3.3
ΔV w.r.t. Earth (km/sec)9.9
semimajor axis (AU)2.6645380
mean anomaly (°)277.29390
mean daily motion (°/day)0.22660580
aphelion distance (AU)3.371
period (years)4.35
P-vector [x]0.92676479
P-vector [y]-0.30956482
P-vector [z]-0.21278309
Q-vector [x]0.34050942
Q-vector [y]0.93150377
Q-vector [z]0.12788299
absolute magnitude17.25
phase slope0.15
uncertainty0
referenceMPEC 2024-F74
observations used75
oppositions7
arc length (days)7480
first opposition used2003
last opposition used2024
residual rms (arc-secs)0.24
perturbers coarse indicatorM-v
perturbers precise indicator003Ek
first observation date used2003-09-28.0
last observation date used2024-03-21.0
computer nameMPCLINUX
JD of orbit computation2458139.370559
perihelion JD uncertainty (days)2.0094E-05
argument of perihelion uncertainty (°)1.1665E-05
ascending node uncertainty (°)1.0325E-05
inclination uncertainty (°)3.5658E-06
eccentricity uncertainty 3.8626E-08
perihelion distance uncertainty (AU)1.0060E-07
Minimum Orbit Intersection Distances (in AU)
for orbit epoch: 2460400.5, reference: E2024-GF4
Mercury1.56304
Venus1.23073
Earth0.95239
Mars0.57903
Jupiter2.01842
Saturn5.89791
Uranus15.0798
Neptune27.0299

Observations

78 total observations over interval: 2003 09 28.53613 – 2024 03 21.621494
These data are available for download (format description).

Date (UT) J2000 RA J2000 Dec Magn Location Ref
2003 09 28.53613 01 48 19.32 -12 43 07.3 20.6   608 – Haleakala-AMOS MPS 732515
2003 09 28.54686 01 48 18.97 -12 43 15.9 20.9   608 – Haleakala-AMOS MPS 732515
2003 09 28.55737 01 48 18.64 -12 43 24.2 20.7   608 – Haleakala-AMOS MPS 732515
2011 05 12.39066 16 25 51.02 +02 47 57.4 20.9 V 691 – Steward Observatory, Kitt Peak-Spacewatch MPS 732515
2011 05 12.40836 16 25 50.15 +02 48 02.6 20.9 V 691 – Steward Observatory, Kitt Peak-Spacewatch MPS 732515
2011 05 12.42607 16 25 49.33 +02 48 08.0 20.8 V 691 – Steward Observatory, Kitt Peak-Spacewatch MPS 732516
2015 04 13.44205 14 15 12.763 +08 07 18.37 21.7 w F51 – Pan-STARRS 1, Haleakala MPS 732516
2015 04 13.45644 14 15 12.064 +08 07 25.08 21.7 w F51 – Pan-STARRS 1, Haleakala MPS 732516
2015 04 13.47116 14 15 11.367 +08 07 31.79 21.4 w F51 – Pan-STARRS 1, Haleakala MPS 732516
2015 04 25.33975 14 05 30.31 +09 28 51.3 21.7 V G96 – Mt. Lemmon Survey MPS 732516
2015 04 25.34495 14 05 30.07 +09 28 52.6 20.9 V G96 – Mt. Lemmon Survey MPS 732516
2015 04 25.35014 14 05 29.76 +09 28 54.8 21.1 V G96 – Mt. Lemmon Survey MPS 732516
2015 04 25.35533 14 05 29.49 +09 28 57.0 21.4 V G96 – Mt. Lemmon Survey MPS 732516
2016 08 03.55096 00 50 32.519 -04 04 54.63 20.3 w F51 – Pan-STARRS 1, Haleakala MPS 732516
2016 08 03.55226 00 50 32.577 -04 04 55.29 20.2 w F51 – Pan-STARRS 1, Haleakala MPS 732516
2016 08 03.56239 00 50 33.080 -04 05 00.47 20.1 w F51 – Pan-STARRS 1, Haleakala MPS 732516
2016 08 03.56368 00 50 33.145 -04 05 01.16 20.0 w F51 – Pan-STARRS 1, Haleakala MPS 732516
2016 08 03.57379 00 50 33.649 -04 05 06.39 19.9 w F51 – Pan-STARRS 1, Haleakala MPS 732516
2016 08 03.57508 00 50 33.715 -04 05 07.04 19.8 w F51 – Pan-STARRS 1, Haleakala MPS 732516
2016 08 03.58530 00 50 34.216 -04 05 12.41 19.8 w F51 – Pan-STARRS 1, Haleakala MPS 732516
2016 08 12.56461 00 57 16.742 -05 34 08.18 19.9 w F51 – Pan-STARRS 1, Haleakala MPS 732516
2016 08 12.57594 00 57 17.126 -05 34 15.74 20.0 w F51 – Pan-STARRS 1, Haleakala MPS 732516
2016 08 12.58727 00 57 17.517 -05 34 23.36 20.2 w F51 – Pan-STARRS 1, Haleakala MPS 732516
2016 08 12.59859 00 57 17.902 -05 34 30.92 20.4 w F51 – Pan-STARRS 1, Haleakala MPS 732516
2016 08 27.55399 01 03 05.360 -08 48 58.83 19.4 w F51 – Pan-STARRS 1, Haleakala MPS 728008
2016 08 27.56770 01 03 05.438 -08 49 10.79 19.4 w F51 – Pan-STARRS 1, Haleakala MPS 728008
2016 08 27.58142 01 03 05.515 -08 49 22.83 19.4 w F51 – Pan-STARRS 1, Haleakala MPS 728008
2016 08 27.59515 01 03 05.593 -08 49 34.85 19.9 w F51 – Pan-STARRS 1, Haleakala MPS 728008
2016 09 04.46346 01 03 14.69 -10 48 36.4 19.2 V 703 – Catalina Sky Survey MPS 728008
2016 09 04.47154 01 03 14.68 -10 48 42.6 19.1 V 703 – Catalina Sky Survey MPS 728008
2016 09 04.47560 01 03 14.66 -10 48 47.2 19.3 V 703 – Catalina Sky Survey MPS 728008
2016 09 08.53879 01 02 34.379 -11 52 05.79 19.2 w F51 – Pan-STARRS 1, Haleakala MPS 728008
2016 09 08.55009 01 02 34.187 -11 52 16.33 19.2 w F51 – Pan-STARRS 1, Haleakala MPS 728008
2016 09 08.56142 01 02 33.999 -11 52 26.94 19.2 w F51 – Pan-STARRS 1, Haleakala MPS 728008
2016 09 09.33909 01 02 23.25 -12 04 36.9 19.2 V G96 – Mt. Lemmon Survey MPS 728008
2016 09 09.34215 01 02 23.21 -12 04 39.8 19.1 V G96 – Mt. Lemmon Survey MPS 728008
2016 09 09.34517 01 02 23.16 -12 04 42.6 19.1 V G96 – Mt. Lemmon Survey MPS 728008
2016 09 09.34818 01 02 23.09 -12 04 45.3 19.1 V G96 – Mt. Lemmon Survey MPS 728008
2016 09 23.58381 00 56 26.12 -15 36 40.8 19.3 R Q60 – ISON-SSO Observatory, Siding Spring MPS 730795
2016 09 23.59338 00 56 25.78 -15 36 48.6 19.3 R Q60 – ISON-SSO Observatory, Siding Spring MPS 730795
2016 09 23.60321 00 56 25.44 -15 36 57.0 19.2 R Q60 – ISON-SSO Observatory, Siding Spring MPS 730795
2016 10 09.41292 00 46 44.128 -18 31 00.11 18.9 i F51 – Pan-STARRS 1, Haleakala MPS 734444
2016 10 09.42394 00 46 43.687 -18 31 05.33 19.1 i F51 – Pan-STARRS 1, Haleakala MPS 734444
2016 10 09.43493 00 46 43.252 -18 31 10.52 19.2 i F51 – Pan-STARRS 1, Haleakala MPS 734444
2016 10 11.15984 00 45 41.43 -18 44 14.1 19.9 G G45 – Space Surveillance Telescope, Atom Site MPS 1611162
2016 10 11.20550 00 45 39.69 -18 44 33.7 20.2 G G45 – Space Surveillance Telescope, Atom Site MPS 1611162
2016 10 11.25041 00 45 37.98 -18 44 53.0 19.7 G G45 – Space Surveillance Telescope, Atom Site MPS 1611162
2016 10 11.30080 00 45 36.03 -18 45 14.1 19.8 G G45 – Space Surveillance Telescope, Atom Site MPS 1611162
2016 10 25.34998 00 38 46.487 -19 42 22.36 19.6 w F51 – Pan-STARRS 1, Haleakala MPS 737627
2016 10 25.36272 00 38 46.175 -19 42 23.21 19.7 w F51 – Pan-STARRS 1, Haleakala MPS 737627
2016 10 25.37550 00 38 45.868 -19 42 24.02 19.9 w F51 – Pan-STARRS 1, Haleakala MPS 737627
2016 10 25.38825 00 38 45.559 -19 42 24.82 20.0 w F51 – Pan-STARRS 1, Haleakala MPS 737627
2016 11 20.04451 00 38 22.31 -18 11 16.9 20.6 G G45 – Space Surveillance Telescope, Atom Site MPS 1611162
2016 11 20.07501 00 38 22.72 -18 11 02.2 20.9 G G45 – Space Surveillance Telescope, Atom Site MPS 1611162
2016 11 20.10628 00 38 23.34 -18 10 48.3 20.9 G G45 – Space Surveillance Telescope, Atom Site MPS 1611162
2016 11 20.14453 00 38 23.98 -18 10 32.4 20.6 G G45 – Space Surveillance Telescope, Atom Site MPS 1611162
2016 11 20.14463 00 38 24.03 -18 10 32.6 20.6 G G45 – Space Surveillance Telescope, Atom Site MPS 1611162
2016 11 20.17746 00 38 24.54 -18 10 17.5 21.1 G G45 – Space Surveillance Telescope, Atom Site MPS 1611162
2016 11 20.17757 00 38 24.59 -18 10 17.7 20.6 G G45 – Space Surveillance Telescope, Atom Site MPS 1611162
2016 11 20.21043 00 38 25.21 -18 10 02.4 20.4 G G45 – Space Surveillance Telescope, Atom Site MPS 1611162
2016 11 20.24260 00 38 25.75 -18 09 48.1 20.6 G G45 – Space Surveillance Telescope, Atom Site MPS 1611162
2016 11 20.24270 00 38 25.73 -18 09 48.3 20.2 G G45 – Space Surveillance Telescope, Atom Site MPS 1611162
2017 12 24.45456 08 49 25.488 +09 22 25.93 22.3 w F51 – Pan-STARRS 1, Haleakala MPS 851648
2017 12 24.47776 08 49 24.725 +09 22 30.60 22.1 w F51 – Pan-STARRS 1, Haleakala MPS 851648
2017 12 24.48935 08 49 24.343 +09 22 33.24 21.8 w F51 – Pan-STARRS 1, Haleakala MPS 851648
2018 01 12.54750 08 36 00.642 +10 53 38.84 21.9 w F51 – Pan-STARRS 1, Haleakala MPS 855803
2018 01 12.56090 08 35 59.945 +10 53 43.64 21.7 w F51 – Pan-STARRS 1, Haleakala MPS 855803
2018 01 12.57431 08 35 59.241 +10 53 48.23 21.6 w F51 – Pan-STARRS 1, Haleakala MPS 855803
2018 01 12.58777 08 35 58.532 +10 53 52.89 21.4 w F51 – Pan-STARRS 1, Haleakala MPS 855803
2018 01 20.51488 08 29 02.455 +11 43 10.27 21.3 w F51 – Pan-STARRS 1, Haleakala MPS 862020
2018 01 20.52710 08 29 01.782 +11 43 15.04 21.4 w F51 – Pan-STARRS 1, Haleakala MPS 862020
2018 01 20.53936 08 29 01.106 +11 43 19.74 21.7 w F51 – Pan-STARRS 1, Haleakala MPS 862020
2019 04 03.02727 12 28 36.65 +13 00 56.5 21.5 R G36 – Calar Alto-CASADO MPS 990561
2019 04 03.07798 12 28 34.17 +13 01 17.2 21.6 R G36 – Calar Alto-CASADO MPS 990561
2019 04 03.12867 12 28 31.69 +13 01 38.1 22.4 R G36 – Calar Alto-CASADO MPS 990561
2024 03 21.604252 16 18 23.478 -01 48 22.75 21.90 w F51 – Pan-STARRS 1, Haleakala MPS 2156045
2024 03 21.612819 16 18 23.622 -01 48 19.52 22.28 w F51 – Pan-STARRS 1, Haleakala MPS 2156045
2024 03 21.621494 16 18 23.776 -01 48 16.15 22.27 w F51 – Pan-STARRS 1, Haleakala MPS 2156045